JACK-002

导读

JACK-002(NORAD编号68417)是美国商业航天企业True Anomaly研制的Jackal系列自主轨道飞行器,隶属于该公司面向国防太空任务的在轨技术试验平台。该卫星于2026年5月通过SpaceX“Bandwagon”拼车任务发射入低地球轨道,搭载Mosaic多域任务软件系统,核心承担轨道交会、近距离操作与空间态势感知试验任务。在2026年美国太空军“Victus Haze”战术响应空间任务中,它完成对Rocket Lab“Puma”目标航天器的多方位环绕抵近成像与特性表征,验证了快速响应在轨操作能力。

Basic Information
目录编号:
68417
目录名称:
JACK-002
国际标识:
2026-067B
轨道中心:
EARTH
卫星名称:
JACK-002
卫星全名:
JACK-002
卫星状态:
在轨 (已飞行158 天)
发射日期:
2026-03-30 UTC
国别 :
韩国 (KR)
星等 :
--
Orbit Information
数据来源 国际轨道数据
星历时间: 2026-09-04T04:07:58+0800
11小时前
查看轨道信息
半长轴: 6883.236km
偏心率: 0.0002916
轨道倾角: 97.465°
近地点辐角 46.073°
升交点赤经 204.537°
平近点角 314.075°
近地点: 503.091km
远地点: 507.107km
周期: 94.722分钟
每日圈数: 15.202457
Detailed Information
使用方式:
暂无
2D Orbit Map
3D Orbit Map
Orbit Altitude Analysis Chart
Orbit Inclination Analysis Chart
Orbit Comprehensive Analysis Chart
View Comprehensive Chart
Conjunction Data List
Event ID Objects TCA Miss Dist (km) Collision Risk Probability Collision Risk Index (CRI) Action
CDM_260831-180306-404306-841721
JACK-002 (68417)
2026-08-31T
18:03:47+0000
1.971 km
极远距离
3.003312E-6 低风险 0.45
CDM_260831-125206-441906-841721
JACK-002 (68417)
2026-08-31T
12:52:26+0000
2.205 km
极远距离
2.25288E-6 低风险 0.42
CDM_260906-134004-096706-841721
FOX-1 (40967)
JACK-002 (68417)
2026-09-06T
13:40:20+0000
2.744 km
极远距离
1.524843E-6 低风险 0.39
CDM_260903-044404-318906-841726
S-NET C (43189)
JACK-002 (68417)
2026-09-03T
04:44:47+0000
2.946 km
极远距离
8.793981E-7 极低风险 0.34